AT&T T-16

Last updated on Mon Nov 03 2025 00:02:59 GMT+0000 (Coordinated Universal Time)

1 44333U 19034A 25306.52045071 -.00000105 00000+0 00000+0 0 9999 2 44333 0.0278 72.4546 0000869 154.5856 261.5486 1.00282597 23361
UTC large
Height (km)
Speed (km/s)
/
Latitude / Longitude
Inclination (degrees)
Orbital Period (minutes)
Azimuth
Elevation
Range (km)
Doppler Factor

Next 0 passes for location: London (51.5072 / 0.1276)

Sorry there are no passes over London.